Weather History for York, PA

Change the Weather History Date:

Thursday, October 17, 2013

  Actual Average Record
Temperature  
Mean Temperature 64 °F -  
Max Temperature 73 °F 0 °F 93 °F (2007)
Min Temperature 57 °F - 32 °F (2004)
Growing Degree Days 14 (Base 50)    
Moisture  
Dew Point 59 °F    
Average Humidity 87    
Maximum Humidity 100    
Minimum Humidity 66    
Precipitation  
Precipitation 0.15 in - - ()
Sea Level Pressure  
Sea Level Pressure 29.85 in    
Wind  
Wind Speed 2 mph (SSW)    
Max Wind Speed 12 mph    
Max Gust Speed 28 mph    
Visibility 6 miles    
Events Fog , Rain    
Averages and records for this station are not official NWS values.
T = Trace of Precipitation, MM = Missing Value Source: NWS Daily Summary

Daily Weather History Graph

Daily Weather History Graph

Search for Another Location

Airport:

Trip Planner

Search our weather history database for the weather conditions in past years. The results will help you decide how hot, cold, wet, or windy it might be!

Date:

Astronomy

Oct. 17, 2013 Rise Set
Actual Time 7:20 AM EDT 6:24 PM EDT
Civil Twilight 6:52 AM EDT 6:52 PM EDT
Nautical Twilight 6:21 AM EDT 7:23 PM EDT
Astronomical Twilight 5:50 AM EDT 7:54 PM EDT
Moon 5:37 PM EDT (10/17) 5:50 AM EDT (10/17)
Length of Visible Light 11h 59m
Length of Day
11h 04m
Waxing Gibbous, 98% of the Moon is Illuminated
Oct 17
Waxing Gibbous
Oct 18
Full
Oct 26
Last Quarter
Nov 3
New
Nov 10
First Quarter

Hourly Weather History & Observations

Time (EDT) Temp. Dew Point Humidity Pressure Visibility Wind Dir Wind Speed Gust Speed Precip Events Conditions
12:53 AM 63.0 °F 60.1 °F 90% 29.90 in 10.0 mi Calm Calm - N/A   Scattered Clouds
1:53 AM 64.0 °F 60.1 °F 87% 29.90 in 10.0 mi SW 4.6 mph - 0.00 in Rain Light Rain
2:53 AM 63.0 °F 60.1 °F 90% 29.89 in 10.0 mi Calm Calm - 0.01 in   Mostly Cloudy
3:53 AM 59.0 °F 57.0 °F 93% 29.88 in 8.0 mi Calm Calm - N/A   Partly Cloudy
4:07 AM 57.2 °F 57.2 °F 100% 29.88 in 1.8 mi Calm Calm - N/A   Partly Cloudy
4:11 AM 57.2 °F 57.2 °F 100% 29.88 in 0.8 mi Calm Calm - N/A   Mist
4:24 AM 57.2 °F 55.4 °F 94% 29.88 in 1.0 mi Calm Calm - N/A   Mostly Cloudy
4:34 AM 57.2 °F 55.4 °F 94% 29.88 in 0.8 mi Calm Calm - N/A   Overcast
4:53 AM 57.9 °F 57.0 °F 97% 29.88 in 1.0 mi Calm Calm - N/A   Mostly Cloudy
5:00 AM 57.2 °F 57.2 °F 100% 29.88 in 0.8 mi Calm Calm - N/A   Mostly Cloudy
5:12 AM 57.2 °F 55.4 °F 94% 29.88 in 0.5 mi Calm Calm - N/A Fog Fog
5:19 AM 57.2 °F 55.4 °F 94% 29.88 in 0.8 mi Calm Calm - N/A   Mist
5:27 AM 57.2 °F 55.4 °F 94% 29.87 in 1.0 mi ESE 3.5 mph - N/A   Mist
5:32 AM 59.0 °F 57.2 °F 94% 29.87 in 2.0 mi SSE 3.5 mph - N/A   Clear
5:35 AM 60.8 °F 57.2 °F 88% 29.88 in 4.0 mi Calm Calm - N/A   Partly Cloudy
5:53 AM 59.0 °F 57.9 °F 96% 29.89 in 6.0 mi Calm Calm - N/A   Mostly Cloudy
6:25 AM 57.2 °F 57.2 °F 100% 29.89 in 5.0 mi Calm Calm - N/A   Scattered Clouds
6:32 AM 57.2 °F 57.2 °F 100% 29.89 in 4.0 mi Calm Calm - N/A   Mostly Cloudy
6:53 AM 57.9 °F 57.0 °F 97% 29.90 in 5.0 mi Calm Calm - N/A   Overcast
7:53 AM 59.0 °F 57.9 °F 96% 29.91 in 3.0 mi Calm Calm - N/A   Overcast
8:12 AM 60.8 °F 59.0 °F 94% 29.90 in 3.0 mi Calm Calm - N/A   Overcast
8:53 AM 62.1 °F 60.1 °F 93% 29.92 in 4.0 mi Calm Calm - N/A   Overcast
9:36 AM 62.6 °F 60.8 °F 94% 29.91 in 5.0 mi Calm Calm - N/A   Overcast
9:53 AM 63.0 °F 60.1 °F 90% 29.92 in 5.0 mi Calm Calm - N/A   Overcast
10:26 AM 64.4 °F 60.8 °F 88% 29.91 in 9.0 mi Calm Calm - N/A   Mostly Cloudy
10:53 AM 66.9 °F 60.1 °F 79% 29.90 in 10.0 mi Calm Calm - N/A   Scattered Clouds
11:05 AM 66.2 °F 60.8 °F 83% 29.90 in 10.0 mi Calm Calm - N/A   Mostly Cloudy
11:31 AM 68.0 °F 60.8 °F 78% 29.90 in 10.0 mi Calm Calm - N/A   Overcast
11:53 AM 70.0 °F 61.0 °F 73% 29.89 in 10.0 mi ESE 3.5 mph - N/A   Mostly Cloudy
12:25 PM 69.8 °F 60.8 °F 73% 29.88 in 10.0 mi Calm Calm - N/A   Scattered Clouds
12:37 PM 69.8 °F 60.8 °F 73% 29.87 in 10.0 mi Calm Calm - N/A   Mostly Cloudy
12:53 PM 71.1 °F 60.1 °F 68% 29.87 in 10.0 mi East 3.5 mph - N/A   Mostly Cloudy
1:09 PM 71.6 °F 60.8 °F 69% 29.85 in 10.0 mi Calm Calm - N/A   Scattered Clouds
1:53 PM 72.0 °F 60.1 °F 66% 29.82 in 10.0 mi ESE 4.6 mph - N/A   Mostly Cloudy
2:53 PM 70.0 °F 60.1 °F 71% 29.81 in 10.0 mi East 3.5 mph - N/A   Overcast
3:53 PM 70.0 °F 61.0 °F 73% 29.78 in 8.0 mi East 6.9 mph - N/A   Overcast
4:53 PM 69.1 °F 61.0 °F 75% 29.75 in 6.0 mi Variable 4.6 mph - 0.02 in Rain Light Rain
5:53 PM 66.9 °F 61.0 °F 81% 29.73 in 9.0 mi SSE 6.9 mph - 0.00 in   Mostly Cloudy
6:53 PM 64.9 °F 59.0 °F 81% 29.72 in 10.0 mi SSE 6.9 mph - N/A   Mostly Cloudy
7:53 PM 66.0 °F 61.0 °F 84% 29.70 in 7.0 mi Calm Calm - N/A   Overcast
8:53 PM 66.9 °F 62.1 °F 84% 29.71 in 10.0 mi South 6.9 mph - N/A   Overcast
9:29 PM 62.6 °F 59.0 °F 88% 29.75 in 3.0 mi WNW 11.5 mph 27.6 mph 0.06 in Rain Heavy Rain
9:31 PM 62.6 °F 57.2 °F 82% 29.75 in 2.0 mi West 8.1 mph 27.6 mph 0.11 in Rain Heavy Rain
9:34 PM 62.6 °F 59.0 °F 88% 29.75 in 2.0 mi West 8.1 mph 27.6 mph 0.12 in Rain Heavy Rain
9:38 PM 62.6 °F 60.8 °F 94% 29.75 in 2.5 mi West 6.9 mph - 0.12 in Rain Light Rain
9:46 PM 62.6 °F 60.8 °F 94% 29.76 in 10.0 mi West 8.1 mph - 0.12 in Rain Light Rain
9:53 PM 63.0 °F 59.0 °F 87% 29.77 in 10.0 mi West 8.1 mph - 0.12 in Rain Light Rain
10:00 PM 62.6 °F 59.0 °F 88% 29.77 in 10.0 mi West 9.2 mph - 0.00 in Rain Light Rain
10:53 PM 62.1 °F 55.0 °F 78% 29.80 in 10.0 mi West 6.9 mph - 0.00 in   Overcast
11:53 PM 60.1 °F 51.1 °F 72% 29.82 in 10.0 mi Variable 6.9 mph - N/A   Overcast